Terminal Aerodrome Forecast
Issued by NWS

Home | Current Version | Previous Version | Graphics & Text | Print | Product List | Glossary On
Versions: 1 2 3 4 5 6 7 8 9 10 11 12 13 14 15 16 17 18 19 20 21 22 23 24 25 26 27 28 29 30 31 32 33 34 35 36 37 38 39 40 41 42 43 44 45 46 47 48 49 50
000
FTUS43 KLOT 300100 AAA
TAFGYY
TAF AMD
KGYY 300125Z 3001/3024 35017G25KT P6SM OVC006
      TEMPO 3004/3008 4SM -RA BR
     FM300800 35015KT P6SM OVC010
     FM301400 35013KT P6SM BKN013
     FM302100 01009KT P6SM BKN018=

USA.gov is the U.S. government's official web portal to all federal, state and local government web resources and services.